TimePDT,TemperatureF,Dew PointF,Humidity,Sea Level PressureIn,VisibilityMPH,Wind Direction,Wind SpeedMPH,Gust SpeedMPH,PrecipitationIn,Events,Conditions,WindDirDegrees,DateUTC
12:53 AM,27.0,17.1,66,30.16,10.0,Calm,Calm,-,N/A,,Clear,0,2014-03-23 07:53:00
1:53 AM,27.0,19.0,72,30.17,10.0,NE,3.5,-,N/A,,Clear,40,2014-03-23 08:53:00
2:53 AM,24.1,19.0,81,30.17,10.0,Calm,Calm,-,N/A,,Clear,0,2014-03-23 09:53:00
3:53 AM,23.0,18.0,81,30.17,10.0,Calm,Calm,-,N/A,,Clear,0,2014-03-23 10:53:00
4:53 AM,21.0,17.1,85,30.18,10.0,Calm,Calm,-,N/A,,Clear,0,2014-03-23 11:53:00
5:53 AM,21.9,17.1,82,30.19,10.0,Calm,Calm,-,N/A,,Clear,0,2014-03-23 12:53:00
6:53 AM,21.0,17.1,85,30.21,10.0,Calm,Calm,-,N/A,,Clear,0,2014-03-23 13:53:00
7:53 AM,25.0,19.9,81,30.24,10.0,Calm,Calm,-,N/A,,Clear,0,2014-03-23 14:53:00
8:53 AM,33.1,26.1,75,30.24,10.0,Calm,Calm,-,N/A,,Clear,0,2014-03-23 15:53:00
9:53 AM,39.9,27.0,60,30.24,10.0,Calm,Calm,-,N/A,,Clear,0,2014-03-23 16:53:00
10:53 AM,46.9,26.1,44,30.25,10.0,Calm,Calm,-,N/A,,Clear,0,2014-03-23 17:53:00
11:53 AM,52.0,24.1,34,30.24,10.0,Variable,4.6,-,N/A,,Clear,0,2014-03-23 18:53:00
12:53 PM,55.0,23.0,29,30.22,10.0,Variable,3.5,-,N/A,,Clear,0,2014-03-23 19:53:00
1:53 PM,57.9,16.0,19,30.19,10.0,NNW,4.6,-,N/A,,Clear,340,2014-03-23 20:53:00
2:53 PM,60.1,19.0,20,30.18,10.0,Variable,4.6,-,N/A,,Clear,0,2014-03-23 21:53:00
3:53 PM,63.0,19.9,19,30.16,10.0,Variable,4.6,-,N/A,,Clear,0,2014-03-23 22:53:00
4:53 PM,62.1,18.0,18,30.15,10.0,Variable,3.5,-,N/A,,Clear,0,2014-03-23 23:53:00
5:53 PM,62.1,19.9,20,30.15,10.0,WSW,10.4,-,N/A,,Clear,240,2014-03-24 00:53:00
6:53 PM,57.0,19.0,23,30.17,10.0,NW,12.7,-,N/A,,Clear,320,2014-03-24 01:53:00
7:53 PM,48.0,21.0,34,30.19,10.0,NW,9.2,-,N/A,,Clear,310,2014-03-24 02:53:00
8:53 PM,43.0,19.9,40,30.21,10.0,SSW,4.6,-,N/A,,Clear,200,2014-03-24 03:53:00
9:53 PM,41.0,19.0,41,30.20,10.0,Variable,4.6,-,N/A,,Clear,0,2014-03-24 04:53:00
10:53 PM,32.0,21.9,66,30.22,10.0,Calm,Calm,-,N/A,,Clear,0,2014-03-24 05:53:00
11:53 PM,28.9,21.0,72,30.21,10.0,Calm,Calm,-,N/A,,Clear,0,2014-03-24 06:53:00